Location: ????????
(48.4751°N, 37.6926°E)
Time: 21:08:54
(UTC+00:00)

NOSS 3-1 (A) - Pass Details

Date: 20 January 2021
Orbit: 735 x 1477 km, 63.4° (Epoch: 02 March)

Event Time Altitude Azimuth Distance (km) Brightness Sun altitude
Rises 16:17:19 0° 317° (NW) 3,804 7.1 -20.8°
Reaches altitude 10° 16:19:53 10° 323° (NW) 2,952 6.4 -21.3°
Maximum altitude 16:26:50 50° 38° (NE) 1,535 4.2 -22.4°
Enters shadow 16:29:21 39° 84° (E) 1,848 4.4 -22.8°
